Fort Leonard Wood, MO

10:31 PM CDT on August 23, 2017 (GMT -0500)
Waynesville Regional At Forney Field

Weather History for KTBN - February, 2014

Change the Weather History Date:

Tuesday, February 4, 2014

  Actual Average Record
Temperature  
Mean Temperature 24 °F -  
Max Temperature 26 °F 43 °F 76 °F (2008)
Min Temperature 22 °F 28 °F 7 °F (2009)
Degree Days  
Heating Degree Days 40    
Moisture  
Dew Point 24 °F    
Average Humidity 97    
Maximum Humidity 100    
Minimum Humidity 79    
Precipitation  
Precipitation 0.08 in - - ()
Sea Level Pressure  
Sea Level Pressure 30.00 in    
Wind  
Wind Speed 9 mph (NE)    
Max Wind Speed 16 mph    
Max Gust Speed 20 mph    
Visibility 4 miles    
Events Rain , Snow    
Averages and records for this station are not official NWS values.
T = Trace of Precipitation, MM = Missing Value Source: NWS Daily Summary

Daily Weather History Graph

Daily Weather History Graph

Search for Another Location

Airport or City:

Trip Planner

Search our weather history database for the weather conditions in past years. The results will help you decide how hot, cold, wet, or windy it might be!

Date:

Astronomy

Feb. 04, 2014 Rise Set
Actual Time 7:09 AM CST 5:35 PM CST
Civil Twilight 6:42 AM CST 6:03 PM CST
Nautical Twilight 6:11 AM CST 6:34 PM CST
Astronomical Twilight 5:40 AM CST 7:05 PM CST
Moon 9:54 AM CST (2/4) 11:22 PM CST (2/4)
Length of Visible Light 11h 20m
Length of Day
10h 25m
Waxing Crescent, 29% of the Moon is Illuminated
Feb 4
Waxing Crescent
Feb 6
First Quarter
Feb 14
Full
Feb 22
Last Quarter
Mar 1
New

Hourly Weather History & Observations

Time (CST) Temp. Windchill Dew Point Humidity Pressure Visibility Wind Dir Wind Speed Gust Speed Precip Events Conditions
12:58 AM 26.1 °F 18.4 °F 21.4 °F 82% 30.25 in 10.0 mi East 6.9 mph - N/A   Mostly Cloudy
1:58 AM 26.2 °F 19.6 °F 21.9 °F 84% 30.25 in 10.0 mi East 5.8 mph - N/A   Clear
2:58 AM 26.1 °F 19.4 °F 20.5 °F 79% 30.26 in 10.0 mi East 5.8 mph - N/A   Overcast
3:58 AM 25.7 °F 16.4 °F 21.0 °F 82% 30.21 in 10.0 mi East 9.2 mph - N/A   Mostly Cloudy
4:58 AM 25.5 °F 17.8 °F 21.4 °F 84% 30.21 in 10.0 mi East 6.9 mph - N/A   Clear
5:58 AM 25.5 °F 18.7 °F 21.0 °F 83% 30.24 in 10.0 mi East 5.8 mph - N/A   Overcast
6:58 AM 24.8 °F 16.1 °F 21.4 °F 87% 30.21 in 10.0 mi NNE 8.1 mph - N/A   Mostly Cloudy
7:58 AM 24.6 °F 14.4 °F 21.0 °F 86% 30.22 in 10.0 mi NE 10.4 mph - N/A   Overcast
8:58 AM 24.4 °F 14.9 °F 21.4 °F 88% 30.21 in 10.0 mi ENE 9.2 mph - N/A   Mostly Cloudy
9:00 AM 24.8 °F 14.0 °F 21.2 °F 86% 30.16 in 10.0 mi ENE 11.5 mph - N/A   Mostly Cloudy
9:16 AM 24.8 °F 14.0 °F 21.2 °F 86% 30.15 in 10.0 mi East 11.5 mph 18.4 mph N/A   Mostly Cloudy
9:21 AM 24.8 °F 14.6 °F 21.2 °F 86% 30.14 in 10.0 mi ENE 10.4 mph 18.4 mph N/A   Mostly Cloudy
9:58 AM 25.0 °F 14.8 °F 21.4 °F 86% 30.17 in 10.0 mi East 10.4 mph 17.3 mph 0.00 in   Scattered Clouds
10:58 AM 25.7 °F 14.6 °F 21.6 °F 84% 30.15 in 9.0 mi East 12.7 mph - N/A   Overcast
10:59 AM 24.8 °F 13.4 °F 21.2 °F 86% 30.10 in 8.0 mi East 12.7 mph - N/A   Overcast
11:09 AM 24.8 °F 11.9 °F 24.8 °F 100% 30.08 in 1.5 mi East 16.1 mph 19.6 mph N/A Snow Light Snow
11:19 AM 24.8 °F 14.0 °F 24.8 °F 100% 30.08 in 1.0 mi East 11.5 mph - N/A Snow Light Snow
11:34 AM 24.8 °F 16.1 °F 24.8 °F 100% 30.07 in 1.2 mi NE 8.1 mph - N/A Snow Light Snow
11:58 AM 25.3 °F 12.6 °F 25.3 °F 100% 30.07 in 1.2 mi NE 16.1 mph - 0.01 in Snow Light Snow
12:03 PM 24.8 °F 14.6 °F 24.8 °F 100% 30.02 in 1.0 mi NE 10.4 mph - N/A Snow Light Snow
12:08 PM 24.8 °F 13.4 °F 24.8 °F 100% 30.02 in 1.0 mi ENE 12.7 mph 19.6 mph N/A Snow Light Snow
12:13 PM 24.8 °F 15.3 °F 24.8 °F 100% 30.02 in 0.8 mi ENE 9.2 mph 19.6 mph N/A Snow Light Snow
12:18 PM 24.8 °F 14.0 °F 24.8 °F 100% 30.02 in 0.8 mi NE 11.5 mph 17.3 mph N/A Snow Light Snow
12:28 PM 24.8 °F 14.6 °F 24.8 °F 100% 30.00 in 0.8 mi ENE 10.4 mph - N/A Snow Light Snow
12:38 PM 24.8 °F 14.6 °F 24.8 °F 100% 29.99 in 1.0 mi ENE 10.4 mph - N/A Snow Light Snow
12:48 PM 24.8 °F 14.6 °F 24.8 °F 100% 29.98 in 1.0 mi ENE 10.4 mph 17.3 mph N/A Snow Light Snow
12:53 PM 24.8 °F 14.6 °F 24.8 °F 100% 29.98 in 1.2 mi ENE 10.4 mph 17.3 mph N/A Snow Light Snow
12:58 PM 25.7 °F 15.7 °F 25.7 °F 100% 30.02 in 1.5 mi ENE 10.4 mph 17.3 mph 0.02 in Snow Light Snow
1:03 PM 24.8 °F 14.6 °F 24.8 °F 100% 29.97 in 2.0 mi ENE 10.4 mph 17.3 mph N/A Snow Light Snow
1:08 PM 26.6 °F 16.2 °F 26.6 °F 100% 29.96 in 2.0 mi NE 11.5 mph - N/A Snow Light Snow
1:23 PM 26.6 °F 17.5 °F 26.6 °F 100% 29.95 in 1.5 mi ENE 9.2 mph - N/A Snow Light Snow
1:53 PM 26.6 °F 17.5 °F 26.6 °F 100% 29.97 in 1.0 mi ENE 9.2 mph - N/A Snow Light Snow
1:58 PM 26.6 °F 16.2 °F 26.6 °F 100% 30.01 in 0.8 mi ENE 11.5 mph - 0.02 in Snow Light Snow
2:08 PM 26.6 °F 18.2 °F 26.6 °F 100% 29.93 in 1.0 mi ENE 8.1 mph 17.3 mph N/A Snow Light Snow
2:13 PM 26.6 °F 16.8 °F 26.6 °F 100% 29.93 in 1.0 mi ENE 10.4 mph 17.3 mph N/A Snow Light Snow
2:18 PM 26.6 °F 16.8 °F 26.6 °F 100% 29.93 in 1.2 mi ENE 10.4 mph - N/A Snow Light Snow
2:43 PM 26.6 °F 19.1 °F 26.6 °F 100% 29.94 in 2.0 mi ENE 6.9 mph - N/A Snow Light Snow
2:53 PM 26.6 °F 16.8 °F 26.6 °F 100% 29.92 in 3.0 mi ENE 10.4 mph - N/A Snow Light Snow
2:58 PM 26.4 °F 17.3 °F 26.4 °F 100% 29.97 in 4.0 mi NE 9.2 mph 18.4 mph 0.01 in Snow Light Snow
3:03 PM 26.6 °F 18.2 °F 26.6 °F 100% 29.94 in 5.0 mi ENE 8.1 mph 18.4 mph N/A Snow Light Snow
3:43 PM 26.6 °F 16.2 °F 26.6 °F 100% 29.91 in 2.5 mi NE 11.5 mph 18.4 mph N/A Snow Light Snow
3:48 PM 26.6 °F 16.8 °F 26.6 °F 100% 29.90 in 1.2 mi ENE 10.4 mph 18.4 mph N/A Snow Light Snow
3:58 PM 26.1 °F 15.0 °F 26.1 °F 100% 29.95 in 1.2 mi ENE 12.7 mph - 0.01 in Snow Light Snow
4:38 PM 24.8 °F 16.1 °F 24.8 °F 100% 29.89 in 2.0 mi ENE 8.1 mph - N/A   Light Freezing Rain
4:43 PM 24.8 °F 16.1 °F 24.8 °F 100% 29.90 in 2.0 mi NE 8.1 mph - N/A   Light Freezing Rain
4:58 PM 25.5 °F 18.7 °F 25.5 °F 100% 29.96 in 2.5 mi NE 5.8 mph - 0.00 in   Light Freezing Rain
5:03 PM 24.8 °F 17.9 °F 24.8 °F 100% 29.91 in 2.0 mi ENE 5.8 mph - N/A   Light Freezing Rain
5:05 PM 24.8 °F 17.9 °F 24.8 °F 100% 29.91 in 2.0 mi ENE 5.8 mph - N/A   Overcast
5:10 PM 24.8 °F 16.1 °F 24.8 °F 100% 29.89 in 2.5 mi ENE 8.1 mph - N/A   Light Freezing Drizzle
5:15 PM 24.8 °F 15.3 °F 24.8 °F 100% 29.88 in 3.0 mi ENE 9.2 mph - N/A   Light Freezing Drizzle
5:20 PM 24.8 °F 16.1 °F 24.8 °F 100% 29.89 in 3.0 mi ENE 8.1 mph - N/A   Light Freezing Drizzle
5:35 PM 24.8 °F 17.9 °F 24.8 °F 100% 29.91 in 2.5 mi ENE 5.8 mph - N/A   Light Freezing Drizzle
5:45 PM 24.8 °F 16.9 °F 24.8 °F 100% 29.89 in 2.0 mi ENE 6.9 mph - N/A   Light Freezing Drizzle
5:55 PM 24.8 °F 20.5 °F 24.8 °F 100% 29.90 in 2.5 mi ENE 3.5 mph - N/A   Light Freezing Drizzle
5:58 PM 25.5 °F 19.9 °F 25.5 °F 100% 29.96 in 2.5 mi ENE 4.6 mph - 0.00 in   Light Freezing Drizzle
6:03 PM 24.8 °F 16.1 °F 24.8 °F 100% 29.90 in 3.0 mi ENE 8.1 mph - N/A   Light Freezing Drizzle
6:08 PM 24.8 °F 17.9 °F 24.8 °F 100% 29.89 in 3.0 mi NE 5.8 mph - N/A   Light Freezing Drizzle
6:43 PM 24.8 °F 17.9 °F 24.8 °F 100% 29.93 in 4.0 mi NE 5.8 mph - N/A   Light Freezing Drizzle
6:53 PM 24.8 °F 15.3 °F 24.8 °F 100% 29.93 in 3.0 mi ENE 9.2 mph - N/A Rain Light Freezing Rain
6:58 PM 25.2 °F 18.3 °F 25.2 °F 100% 29.98 in 3.0 mi NE 5.8 mph - 0.00 in Rain Light Freezing Rain
7:28 PM 24.8 °F 16.9 °F 24.8 °F 100% 29.93 in 3.0 mi ENE 6.9 mph - N/A Rain Light Freezing Rain
7:53 PM 24.8 °F 16.1 °F 24.8 °F 100% 29.92 in 3.0 mi ENE 8.1 mph - N/A Rain Light Freezing Rain
7:58 PM 25.0 °F 15.5 °F 25.0 °F 100% 29.97 in 3.0 mi ENE 9.2 mph - 0.00 in Rain Light Freezing Rain
8:33 PM 24.8 °F 20.5 °F 24.8 °F 100% 29.94 in 5.0 mi NNE 3.5 mph - N/A   Overcast
8:55 PM 24.8 °F 20.5 °F 24.8 °F 100% 29.94 in 5.0 mi NE 3.5 mph - N/A   Overcast
8:58 PM 24.8 °F 20.5 °F 24.8 °F 100% 29.99 in 5.0 mi NE 3.5 mph - 0.00 in   Overcast
9:33 PM 24.8 °F 17.9 °F 24.8 °F 100% 29.92 in 4.0 mi NNE 5.8 mph - N/A Snow Light Snow
9:43 PM 24.8 °F 17.9 °F 24.8 °F 100% 29.92 in 3.0 mi NE 5.8 mph - N/A Snow Light Snow
9:53 PM 24.8 °F 19.1 °F 24.8 °F 100% 29.92 in 3.0 mi NNE 4.6 mph - N/A Snow Light Snow
9:58 PM 24.6 °F 18.8 °F 24.6 °F 100% 29.97 in 4.0 mi Variable 4.6 mph - 0.00 in Snow Light Snow
10:08 PM 24.8 °F 16.9 °F 24.8 °F 100% 29.92 in 2.5 mi North 6.9 mph - N/A Snow Light Snow
10:18 PM 24.8 °F 17.9 °F 24.8 °F 100% 29.93 in 3.0 mi NNW 5.8 mph - N/A Snow Light Snow
10:23 PM 24.8 °F 16.9 °F 24.8 °F 100% 29.93 in 5.0 mi North 6.9 mph - N/A Snow Light Snow
10:33 PM 23.0 °F 15.8 °F 23.0 °F 100% 29.94 in 8.0 mi NNW 5.8 mph - N/A   Overcast
10:58 PM 23.7 °F 15.6 °F 23.7 °F 100% 29.98 in 9.0 mi North 6.9 mph - 0.01 in   Overcast
11:09 PM 23.0 °F 13.1 °F 23.0 °F 100% 29.93 in 10.0 mi North 9.2 mph - N/A   Overcast
11:58 PM 22.8 °F 13.6 °F 22.8 °F 100% 30.00 in 10.0 mi NW 8.1 mph - 0.00 in   Overcast